DUCHIFAT-3 (44854 NORAD) Tracking and Keplerian Element Data

This shows tracking and keplerian element data for the satellite.

Feedback or suggestion? Click here.




ElementValue
Catalog44854
NameDUCHIFAT-3
Epoch Orbit630
Epoch Day22.95119846
Epoch Year2020
RAAN244.0777
Inclination36.9676
Eccentricity0.0009808
Argument of Perigee314.1637
Mean Anonmoly45.8306
Mean Motion14.98953069
Decay Rate1.2E-06
L11 44854U 19089C 20022.95119846 .00000120 00000-0 16185-4 0 9999
L22 44854 36.9676 244.0777 0009808 314.1637 45.8306 14.98953069 6304

Live tracking and technical data element details for DUCHIFAT-3 (NORAD 44854). DUCHIFAT-3 can be tracked NOW for your location showing map with azimuth and elevation plus other details from your city location.

Track the satellite on the map from your city or location and see movement details for azimuth, elevation, latitude, longitude, range, height, and movement on the map or in text.







IsCatalogInMostPopularTable: catalog: 44854, numindb: 16
Update: records affected: 1



GetName: 44854 DUCHIFAT-3

Hit Count: updated at: Fri, 24 Jan 2020 10:26:14 GMT